Flag for Austria Weather past 2 weeks in Bad Radkersburg, Styria, Austria

Now
65 °F

Mild.


Feels Like: 65 °F
Forecast: 58 / 79 °F
Wind: No wind

Location: Murska Sobota

Current Time: Jul 25, 2014 at 11:33:42 PM

Latest Report: Jul 25, 2014 at 10:00 PM


Visibility: N/A

Pressure: 29.96 "Hg

Humidity: 90%

Dew point: 62 °F

Location of Bad RadkersburgLocation

Historic Weather in Bad Radkersburg — Graph

°F

Bad Radkersburg temperature yesterday

Maximum temperature yesterday: 82 °F (at 5:00 PM)
Minimum temperature yesterday: 56 °F (at 6:00 AM)
Average temperature yesterday: 70 °F

Past Weeks' High & Low Weather Summary

 TemperatureHumidityPressure
High88 °F (Jul 20, 4:00 PM)99% (Jul 11, 4:00 AM)30.10 "Hg (Jul 11, 4:00 AM)
Low56 °F (Jul 24, 6:00 AM)37% (Jul 17, 2:00 PM)29.68 "Hg (Jul 11, 3:00 PM)
Average71 °F75%29.91 "Hg
* Reported Jul 10 10:00 PM — Jul 25 10:00 PM, Bad Radkersburg, Weather by CustomWeather, © 2014

Note: Actual official high and low records may vary slightly from our data, if they occured in-between our weather recording intervals... More about our weather records

Advertising

Bad Radkersburg weather history for previous 24 hours

 ConditionsComfort  
Time TempWeatherWind HumidityBarometerVisibility
10:00 PM
Jul 25
65 °FMild.No wind90%29.96 "HgN/A
9:00 PM68 °FMild.1 mph88%29.94 "HgN/A
8:00 PM72 °FPartly sunny.1 mph75%29.93 "Hg6 mi
7:00 PM73 °FMild.1 mph71%29.93 "HgN/A
6:00 PM72 °FMild.3 mph75%29.92 "HgN/A
5:00 PM75 °FMild.6 mph71%29.92 "HgN/A
4:00 PM77 °FWarm.3 mph62%29.92 "HgN/A
2:00 PM79 °FOvercast.2 mph55%29.93 "Hg6 mi
1:00 PM78 °FWarm.1 mph63%29.93 "HgN/A
12:00 PM77 °FWarm.2 mph64%29.93 "HgN/A
11:00 AM73 °FMild.1 mph75%29.94 "HgN/A
10:00 AM73 °FMild.2 mph74%29.93 "HgN/A
9:00 AM69 °FMild.2 mph82%29.93 "HgN/A
8:00 AM67 °FOvercast.2 mph88%29.92 "Hg6 mi
7:00 AM65 °FOvercast.1 mph96%29.91 "Hg6 mi
6:00 AM64 °FMild.1 mph96%29.90 "HgN/A
5:00 AM64 °FMild.No wind95%29.89 "HgN/A
4:00 AM65 °FMild.1 mph93%29.88 "HgN/A
3:00 AM65 °FMild.No wind92%29.88 "HgN/A
2:00 AM65 °FMild.No wind92%29.88 "HgN/A
1:00 AM65 °FMild.1 mph89%29.88 "HgN/A
12:00 AM66 °FMild.1 mph88%29.88 "HgN/A
11:00 PM
Jul 24
68 °FMild.1 mph86%29.88 "HgN/A
Weather by CustomWeather, © 2014

See weather overviewHow to use our weather pages